Wind_Speed
7 8 9 9 10 10 5 3 3 4 4 4 4 4 4 5 5 5 6 6 6 7 7 7 6 6 6 6 6 6 5 4 4 3 3 3 4 4 4 4 4 4 4 4 4 5 6 7 7
7 8 8 9 10 6 2 2 3 4 5 5 5 4 5 5 5 6 6 6 7 7 7 7 7 7 7 7 6 6 5 5 5 4 4 4 4 4 4 4 4 4 4 4 4 5 5 5 6
7 7 8 8 6 2 3 4 4 4 5 5 5 5 6 6 5 6 7 7 7 7 8 7 7 8 8 7 7 6 6 6 5 5 5 5 5 5 5 5 5 4 4 4 4 3 2 4 5
7 6 7 6 2 3 4 5 5 5 6 5 5 6 6 6 6 6 6 7 6 7 8 7 8 8 8 8 7 7 7 6 6 6 6 6 6 6 5 5 5 4 4 4 3 2 2 3 5
6 5 5 5 1 4 6 6 6 6 6 6 7 6 6 6 6 6 6 6 6 7 7 8 8 8 8 8 8 8 7 7 7 7 7 7 7 6 6 6 6 5 4 4 3 3 3 4 5
4 4 3 4 1 5 7 6 5 6 6 7 8 8 6 6 6 6 6 7 7 7 8 9 9 8 8 8 8 8 8 8 8 8 8 8 7 7 7 7 7 6 5 4 3 3 3 4 5
3 3 5 3 4 6 8 6 6 6 7 8 7 8 6 7 7 6 7 7 8 8 9 9 9 9 9 9 9 9 8 9 9 9 9 8 8 8 8 8 8 7 6 4 4 4 4 5 6
5 3 3 3 4 7 10 9 7 7 7 8 8 8 7 7 7 7 7 8 9 10 10 10 10 9 10 9 9 10 10 9 10 10 10 9 9 9 9 9 9 7 6 5 4 4 4 5 6
6 5 4 4 5 8 10 10 9 7 7 8 9 9 9 9 9 8 8 9 9 10 11 11 11 10 10 10 10 11 10 10 10 10 10 10 9 9 9 9 7 5 5 5 5 5 5 5 6
7 6 4 5 7 8 10 10 8 8 9 9 9 9 9 9 9 8 8 9 9 10 11 11 12 12 11 11 11 11 10 10 10 11 11 11 10 9 9 8 7 5 5 5 5 5 5 5 6
8 8 7 8 9 11 10 9 8 9 9 9 10 9 8 9 9 8 8 9 10 11 11 12 12 12 12 12 11 11 11 11 11 11 11 11 10 9 9 8 6 6 5 6 6 6 6 6 6
11 11 10 10 12 12 11 8 8 10 9 10 11 9 8 9 9 9 9 9 10 11 12 13 13 13 12 12 12 11 11 11 11 12 11 11 10 9 9 8 7 6 6 6 6 6 7 7 6
14 13 12 13 12 12 11 10 9 10 10 10 11 10 10 9 10 10 9 10 11 12 13 13 13 12 12 12 12 12 12 12 11 11 11 11 10 9 9 9 8 7 6 6 6 6 6 7 7
14 14 14 13 12 12 12 12 11 10 11 11 11 10 11 11 11 11 10 11 12 13 13 13 12 12 13 13 13 13 12 12 12 11 11 11 10 10 10 10 9 8 7 6 6 6 6 6 6
15 15 15 14 13 14 13 13 12 10 11 12 13 12 11 11 11 11 12 13 13 13 13 13 12 13 13 13 13 13 13 12 11 11 11 11 11 11 11 10 9 8 8 7 7 7 6 6 6
16 16 16 15 15 14 14 13 12 12 13 14 14 13 13 11 11 13 13 13 13 13 13 13 13 13 13 13 12 12 13 13 12 12 12 11 11 11 11 10 10 9 8 7 7 7 7 7 7
18 16 16 15 16 15 16 14 14 14 14 15 15 14 15 13 12 14 14 13 12 13 14 13 13 13 13 13 13 14 14 14 13 12 12 12 12 11 10 10 9 9 9 9 9 8 8 8 7
17 15 16 15 15 17 17 16 15 15 16 16 16 15 15 14 13 14 14 14 13 13 13 13 12 12 13 14 14 14 14 13 13 13 13 12 12 11 11 10 9 9 10 10 9 9 8 8 7
18 17 16 17 17 19 20 19 17 16 17 17 17 17 16 15 15 14 15 14 14 13 13 13 13 13 13 14 14 15 14 14 14 14 13 13 13 12 11 11 10 10 10 10 9 8 8 8 8
20 19 19 18 18 19 21 21 18 16 17 17 17 18 18 16 16 15 13 13 13 12 13 13 13 13 14 14 15 15 15 14 14 14 14 14 14 13 12 12 12 11 11 11 10 9 9 9 9
21 21 19 19 18 19 21 22 18 17 17 19 19 18 18 18 16 15 15 14 13 13 13 13 14 14 14 15 16 15 15 15 15 15 15 15 14 13 13 13 13 13 13 12 11 11 10 10 10
22 20 20 20 19 20 20 21 19 18 19 19 19 18 18 17 17 16 15 15 14 14 14 14 15 15 15 16 16 15 15 16 15 15 15 15 14 14 13 14 14 13 13 12 11 11 11 11 11
21 20 20 20 20 21 20 20 19 18 19 18 19 18 18 19 19 17 16 15 15 15 15 15 16 16 16 17 16 16 16 16 16 16 15 15 14 14 14 14 15 14 13 12 12 11 12 11 12
22 21 20 20 21 24 22 20 19 19 19 19 19 19 19 19 20 18 17 16 16 16 15 16 17 17 17 17 17 17 17 17 17 17 16 15 15 14 14 14 14 13 12 12 12 12 12 12 12
22 21 20 20 21 22 19 19 20 21 20 21 19 20 19 19 19 18 17 17 16 16 16 17 17 17 17 18 18 17 17 17 17 17 17 17 15 14 14 14 14 13 13 13 13 13 13 13 13
22 21 21 19 17 17 17 19 20 22 21 21 21 20 20 19 19 19 18 17 17 17 17 18 18 18 18 18 18 18 18 18 17 17 17 17 16 15 14 14 14 14 13 14 14 14 14 14 14
23 22 20 18 18 16 16 18 21 22 22 22 21 21 21 22 22 20 18 18 19 18 18 19 19 19 20 19 19 19 19 19 18 17 17 17 17 16 15 14 14 15 15 15 15 15 15 15 15
23 22 21 22 22 21 18 18 20 23 22 21 22 22 22 23 23 21 20 20 20 19 19 20 20 20 20 20 20 19 19 19 18 17 17 17 17 16 15 15 15 16 15 16 16 16 16 15 15
24 24 24 24 23 22 19 20 20 23 23 22 22 22 22 23 23 21 21 20 20 20 19 20 20 20 20 20 20 20 20 19 18 17 17 17 17 16 15 15 15 16 17 16 16 16 15 15 15
24 24 24 25 25 24 23 21 22 21 23 23 22 22 22 22 23 22 21 20 20 20 20 20 20 20 19 20 20 20 19 19 18 18 18 18 17 17 17 17 17 18 18 17 17 16 15 15 14
Wind_Direction
110 101 94 89 79 71 54 29 349 325 331 336 340 344 343 346 345 340 344 348 349 348 348 350 349 343 340 341 340 341 339 333 327 316 326 331 330 330 324 316 308 306 299 289 276 271 261 248 234
112 110 100 80 67 58 17 302 324 328 339 342 342 348 344 345 338 337 339 343 346 346 345 347 350 347 345 343 338 338 338 338 337 331 330 330 331 332 326 319 310 306 302 300 295 286 273 240 222
118 118 97 76 54 4 301 293 309 321 330 338 338 341 344 349 348 345 342 342 344 346 345 349 348 346 344 341 338 334 335 333 334 334 330 326 327 326 324 323 319 312 304 298 293 286 257 206 210
135 118 98 87 44 300 293 308 312 317 322 329 327 331 339 342 346 348 346 346 343 346 347 348 349 348 347 344 343 341 338 332 330 330 328 325 324 323 320 319 320 315 308 299 295 275 239 203 211
143 117 114 117 282 280 289 295 310 313 318 325 326 325 328 331 337 345 348 350 346 348 346 347 349 349 348 346 344 343 342 337 331 326 326 324 322 324 325 324 327 321 309 295 291 266 232 223 223
132 114 118 90 277 284 282 283 290 300 311 322 322 320 323 324 331 338 346 350 347 346 345 345 349 347 347 345 344 344 343 339 336 329 325 324 326 329 325 321 320 316 312 298 280 268 240 234 233
147 146 127 125 262 274 283 287 296 305 308 309 313 313 320 321 324 333 339 343 342 340 344 346 347 345 344 344 344 342 340 337 335 332 328 326 328 328 325 318 314 305 301 297 283 271 252 242 239
163 195 172 178 258 273 275 275 285 294 295 300 308 308 307 318 323 329 331 335 338 336 340 343 343 343 343 340 340 340 339 336 334 332 328 327 329 327 326 320 307 294 289 288 278 269 259 245 238
190 217 217 210 249 267 272 279 283 293 289 294 300 302 305 312 316 318 323 329 332 334 336 337 336 338 337 336 337 338 339 336 334 332 328 325 326 328 331 329 318 295 284 284 274 267 261 252 245
209 227 234 228 244 258 270 279 285 289 290 289 291 298 301 303 308 312 317 323 327 335 335 338 336 337 337 335 337 337 339 339 335 334 331 330 327 329 331 333 329 308 295 288 278 271 259 253 252
225 231 231 233 246 253 261 275 284 281 279 281 282 290 291 297 301 308 315 320 327 333 334 337 336 336 335 333 335 336 339 340 338 336 335 332 329 330 331 332 329 315 299 291 284 278 268 260 255
235 241 238 240 248 255 262 270 275 278 275 278 279 281 290 294 299 300 311 318 323 328 331 333 335 335 334 333 335 333 335 337 337 337 336 333 329 328 326 328 322 315 303 295 288 279 276 269 261
234 241 246 251 255 255 258 262 268 275 268 270 275 276 285 292 294 296 303 312 317 322 325 329 332 334 331 330 331 331 331 334 334 335 334 334 332 331 330 330 326 318 307 299 293 285 277 270 268
235 242 246 250 256 261 263 263 264 272 277 283 285 284 282 284 290 299 303 305 309 314 320 325 329 334 333 329 329 330 329 329 329 328 329 335 335 333 332 334 329 325 317 305 295 289 279 271 265
234 241 248 252 255 259 260 261 263 271 274 279 287 285 281 283 286 291 295 302 307 311 316 321 323 326 329 329 328 328 327 328 328 329 330 333 335 332 331 330 328 326 324 313 298 290 282 270 261
237 241 248 253 255 260 259 260 258 265 273 278 282 283 284 282 282 285 292 299 304 307 311 315 319 321 325 329 328 329 329 331 330 330 331 330 333 332 331 331 329 324 320 313 305 296 284 273 264
238 243 249 255 261 261 259 262 261 263 270 275 279 282 284 281 281 283 288 292 301 306 308 310 314 318 322 327 326 328 330 331 329 330 331 332 331 329 330 331 325 322 320 315 310 302 290 280 272
240 245 253 254 259 263 264 261 259 262 267 270 276 278 279 279 279 281 287 290 295 300 304 308 311 313 319 324 322 322 327 329 327 326 326 328 328 325 326 326 324 322 321 317 309 303 292 284 282
235 237 242 251 254 258 260 258 254 259 268 269 270 275 279 278 279 280 282 285 290 294 300 306 308 310 314 318 320 318 320 323 326 326 323 323 321 320 320 321 318 319 318 315 306 301 292 285 285
233 236 238 240 247 254 259 260 258 255 266 271 271 273 279 279 278 280 285 288 289 290 294 300 306 310 312 314 316 317 315 316 320 321 320 318 316 315 316 317 316 314 313 311 304 298 295 290 284
235 235 236 239 243 250 256 260 261 256 257 265 270 272 274 275 274 279 283 285 289 292 292 297 305 308 311 313 315 317 318 315 315 314 315 314 313 312 313 314 313 312 308 307 302 295 291 290 286
241 241 240 237 238 247 253 261 262 258 256 261 268 270 271 274 273 276 278 282 286 289 291 296 301 305 308 310 313 314 316 316 315 313 312 313 310 309 309 312 312 311 307 305 301 294 290 287 284
241 243 242 239 240 244 249 255 259 262 266 266 265 267 267 270 271 274 275 277 281 284 286 291 296 301 304 306 309 311 311 311 311 312 312 312 311 308 308 309 309 308 308 306 303 298 292 290 286
240 240 242 241 245 246 243 248 252 258 263 265 265 266 266 266 265 271 275 276 279 281 283 286 291 296 298 302 305 308 310 309 310 310 311 310 309 307 306 306 305 305 307 306 304 298 294 291 288
238 236 239 242 246 253 249 247 249 249 254 262 266 266 266 264 265 268 269 271 276 279 282 284 288 291 294 298 300 303 307 307 308 309 310 310 309 309 309 305 304 302 302 304 304 300 295 290 286
239 238 235 237 243 253 251 249 249 250 249 257 264 265 265 264 265 267 267 270 274 279 282 284 286 288 291 293 295 298 302 302 303 306 309 309 307 307 307 306 304 302 300 302 303 301 296 290 287
239 237 235 239 239 244 245 249 255 253 251 254 259 262 264 263 263 266 269 271 273 276 279 282 284 285 286 288 292 294 298 299 299 302 305 307 308 305 302 303 305 304 302 303 301 302 296 291 288
234 235 230 230 233 235 240 245 251 257 255 258 259 260 260 260 262 264 266 268 269 272 276 281 283 284 285 287 291 295 297 299 298 301 302 305 307 306 302 299 302 305 304 303 302 299 294 291 289
233 231 227 228 229 232 236 241 248 253 258 261 259 258 261 262 263 262 263 264 266 269 274 279 282 284 285 287 290 294 295 297 297 298 301 304 305 304 303 301 301 301 300 300 302 300 296 292 289
235 234 230 230 230 228 229 239 244 247 253 256 257 256 256 258 261 259 259 259 264 269 273 277 279 281 283 286 290 292 293 293 296 297 297 300 301 299 299 300 300 301 301 298 299 298 295 293 289
Height
5902 5902 5903 5904 5904 5905 5906 5905 5903 5902 5902 5901 5900 5899 5898 5899 5898 5899 5896 5894 5893 5892 5891 5890 5889 5888 5887 5886 5885 5884 5883 5882 5881 5880 5879 5879 5878 5878 5877 5876 5876 5875 5875 5874 5874 5873 5872 5872 5874
5902 5903 5904 5904 5905 5906 5907 5905 5904 5903 5902 5901 5900 5900 5899 5898 5898 5897 5895 5894 5893 5892 5891 5890 5889 5888 5887 5886 5885 5884 5883 5882 5881 5880 5880 5879 5878 5878 5877 5876 5876 5875 5874 5874 5873 5872 5869 5869 5872
5902 5903 5904 5904 5906 5906 5906 5905 5904 5903 5903 5902 5901 5900 5900 5899 5898 5897 5896 5895 5894 5893 5892 5891 5890 5889 5888 5887 5886 5885 5883 5882 5881 5880 5880 5879 5878 5877 5876 5876 5875 5875 5874 5873 5873 5871 5868 5868 5872
5903 5904 5905 5907 5908 5908 5907 5905 5904 5904 5903 5902 5901 5900 5900 5899 5898 5897 5896 5895 5894 5893 5892 5891 5890 5889 5888 5887 5886 5885 5884 5882 5881 5880 5879 5879 5878 5877 5876 5875 5874 5874 5873 5873 5873 5872 5871 5871 5873
5901 5903 5905 5907 5908 5908 5908 5906 5905 5905 5904 5903 5901 5900 5900 5899 5898 5897 5896 5895 5894 5893 5892 5891 5890 5889 5888 5887 5886 5885 5884 5882 5881 5880 5879 5878 5877 5876 5875 5874 5874 5873 5873 5872 5872 5872 5872 5873 5874
5901 5903 5905 5906 5909 5909 5907 5906 5906 5905 5903 5903 5902 5900 5899 5899 5898 5897 5896 5895 5894 5893 5892 5891 5890 5889 5888 5887 5886 5885 5883 5882 5881 5880 5879 5878 5876 5875 5875 5874 5873 5872 5872 5871 5872 5872 5872 5873 5873
5903 5903 5904 5907 5908 5908 5908 5906 5905 5905 5904 5903 5902 5900 5899 5899 5898 5897 5896 5895 5894 5893 5892 5891 5890 5889 5888 5887 5885 5884 5883 5882 5881 5879 5878 5877 5876 5875 5874 5872 5871 5870 5871 5871 5871 5871 5871 5872 5873
5902 5904 5904 5906 5908 5908 5907 5905 5905 5904 5904 5903 5901 5900 5899 5899 5898 5897 5896 5895 5894 5893 5892 5891 5890 5888 5887 5886 5885 5884 5883 5881 5880 5879 5877 5876 5875 5874 5872 5870 5867 5867 5868 5869 5870 5870 5871 5871 5872
5901 5904 5904 5905 5907 5907 5905 5904 5904 5903 5902 5902 5901 5899 5899 5899 5898 5897 5896 5895 5894 5893 5892 5890 5889 5888 5887 5886 5885 5883 5882 5881 5880 5878 5877 5875 5874 5873 5871 5867 5864 5865 5867 5868 5869 5869 5870 5871 5871
5901 5902 5903 5904 5906 5905 5904 5903 5902 5902 5902 5901 5900 5899 5898 5898 5898 5897 5896 5895 5894 5893 5891 5890 5888 5887 5886 5885 5884 5883 5882 5880 5879 5877 5876 5874 5873 5872 5870 5868 5865 5866 5867 5867 5868 5868 5869 5870 5870
5900 5901 5902 5903 5903 5903 5902 5902 5902 5901 5900 5900 5899 5898 5898 5897 5897 5896 5896 5895 5894 5893 5891 5889 5888 5887 5886 5885 5883 5882 5881 5880 5878 5877 5875 5873 5872 5871 5870 5869 5867 5867 5867 5867 5867 5867 5868 5869 5869
5898 5899 5900 5901 5901 5901 5901 5901 5900 5900 5900 5899 5897 5896 5897 5897 5896 5895 5895 5894 5893 5892 5891 5890 5888 5887 5886 5884 5883 5882 5881 5879 5878 5876 5875 5873 5871 5871 5870 5869 5867 5867 5867 5866 5866 5867 5867 5867 5867
5896 5897 5898 5898 5898 5898 5899 5899 5899 5898 5897 5896 5896 5896 5896 5896 5895 5894 5894 5893 5892 5892 5890 5889 5888 5887 5885 5884 5883 5881 5880 5879 5877 5876 5874 5873 5871 5870 5869 5868 5867 5866 5866 5866 5865 5865 5866 5866 5866
5893 5894 5895 5895 5896 5896 5896 5896 5896 5896 5896 5895 5895 5894 5895 5895 5894 5894 5893 5892 5892 5891 5890 5888 5887 5886 5885 5883 5882 5881 5879 5878 5876 5875 5874 5872 5871 5870 5868 5867 5866 5865 5865 5864 5864 5864 5864 5864 5865
5889 5891 5892 5893 5893 5893 5893 5894 5894 5894 5894 5894 5894 5893 5893 5892 5892 5892 5892 5891 5890 5890 5889 5888 5886 5885 5884 5883 5881 5880 5878 5876 5875 5874 5873 5871 5870 5869 5868 5866 5865 5865 5864 5863 5863 5863 5863 5863 5864
5885 5887 5889 5890 5890 5891 5892 5892 5892 5892 5892 5893 5892 5892 5891 5890 5890 5890 5890 5889 5889 5888 5887 5886 5885 5884 5883 5881 5880 5879 5877 5875 5874 5873 5871 5870 5869 5868 5867 5865 5865 5864 5863 5863 5862 5862 5862 5862 5862
5881 5884 5886 5888 5888 5889 5889 5890 5890 5890 5890 5890 5890 5890 5889 5889 5888 5888 5888 5887 5887 5886 5886 5885 5884 5883 5882 5881 5879 5878 5876 5875 5873 5872 5871 5869 5868 5867 5866 5864 5864 5863 5862 5861 5861 5861 5861 5861 5861
5880 5883 5884 5886 5886 5886 5887 5887 5887 5887 5887 5887 5888 5887 5887 5887 5886 5885 5885 5885 5884 5884 5884 5884 5883 5882 5881 5879 5878 5877 5875 5874 5873 5871 5870 5868 5867 5866 5865 5863 5862 5862 5861 5860 5859 5859 5859 5859 5859
5877 5879 5881 5883 5883 5883 5883 5884 5884 5884 5884 5884 5885 5884 5883 5883 5884 5883 5883 5883 5883 5883 5882 5882 5881 5880 5879 5878 5877 5876 5874 5873 5872 5870 5869 5867 5866 5864 5863 5862 5861 5860 5860 5859 5858 5857 5857 5857 5857
5872 5874 5877 5879 5880 5880 5879 5880 5881 5880 5881 5881 5881 5881 5880 5880 5881 5881 5881 5881 5880 5880 5880 5880 5879 5879 5878 5877 5875 5874 5873 5871 5870 5869 5867 5866 5864 5863 5862 5861 5860 5859 5858 5857 5856 5856 5856 5856 5855
5867 5870 5872 5874 5876 5876 5876 5876 5877 5878 5878 5878 5878 5878 5878 5877 5877 5878 5878 5879 5878 5878 5878 5878 5878 5877 5876 5875 5874 5872 5871 5870 5869 5867 5866 5864 5863 5861 5860 5859 5858 5857 5856 5855 5854 5854 5853 5854 5854
5862 5865 5867 5869 5871 5872 5873 5873 5874 5874 5874 5875 5875 5875 5875 5874 5874 5875 5875 5876 5876 5876 5876 5876 5875 5875 5874 5873 5872 5871 5869 5868 5866 5865 5863 5862 5860 5859 5858 5857 5856 5855 5854 5853 5852 5852 5851 5852 5851
5858 5860 5862 5863 5865 5867 5868 5869 5871 5870 5870 5871 5871 5871 5872 5872 5871 5872 5872 5873 5873 5873 5873 5873 5873 5872 5871 5870 5869 5868 5867 5865 5864 5862 5861 5859 5858 5857 5856 5855 5854 5853 5852 5851 5850 5850 5850 5849 5849
5853 5855 5857 5858 5860 5861 5863 5866 5867 5867 5867 5867 5867 5868 5868 5868 5868 5868 5869 5870 5870 5870 5870 5870 5870 5869 5868 5867 5866 5865 5864 5862 5861 5860 5858 5857 5856 5855 5853 5852 5851 5851 5850 5849 5848 5847 5847 5847 5846
5848 5850 5852 5853 5855 5856 5860 5861 5863 5863 5863 5863 5864 5864 5864 5864 5864 5865 5865 5866 5866 5866 5866 5866 5866 5866 5865 5864 5863 5862 5861 5860 5858 5857 5856 5854 5854 5852 5851 5850 5849 5848 5847 5847 5846 5845 5844 5844 5844
5842 5846 5848 5851 5853 5855 5856 5857 5858 5858 5858 5859 5860 5860 5861 5861 5860 5861 5861 5862 5863 5863 5863 5862 5862 5862 5861 5861 5860 5859 5858 5856 5855 5854 5853 5852 5851 5849 5848 5847 5846 5845 5845 5844 5843 5842 5841 5841 5840
5837 5840 5844 5847 5849 5851 5853 5853 5853 5853 5853 5853 5854 5856 5857 5857 5857 5858 5858 5858 5859 5859 5859 5859 5858 5858 5858 5857 5856 5855 5854 5853 5852 5851 5850 5849 5847 5846 5845 5845 5844 5842 5842 5841 5840 5839 5838 5838 5837
5832 5836 5839 5841 5844 5846 5849 5849 5849 5848 5848 5849 5850 5851 5852 5852 5852 5854 5854 5854 5854 5854 5855 5855 5854 5854 5853 5853 5852 5852 5851 5849 5849 5848 5847 5846 5845 5843 5842 5841 5841 5840 5838 5838 5837 5836 5835 5834 5833
5826 5830 5832 5835 5838 5841 5844 5846 5844 5843 5843 5844 5845 5846 5847 5847 5848 5849 5849 5850 5850 5850 5850 5850 5850 5850 5849 5849 5848 5847 5847 5846 5845 5844 5844 5843 5842 5841 5840 5838 5837 5836 5835 5834 5834 5832 5831 5831 5830
5821 5823 5826 5829 5831 5834 5837 5841 5837 5837 5839 5840 5840 5841 5842 5843 5843 5844 5844 5844 5845 5846 5846 5846 5846 5846 5845 5845 5844 5843 5842 5842 5841 5840 5840 5839 5838 5837 5836 5835 5834 5833 5832 5831 5830 5829 5828 5827 5826